[[{"header":{"parameterUnit":"m.s-1","parameterCategory":1,"la1":30.2991,"la2":30.254,"lo1":-89.0895,"lo2":-89.0444,"dy":0.0017,"dx":0.0017,"nx":28,"ny":28,"refTime":"2025-04-13T21:00:00:Z","depth":0,"parameterNumber":2,"parameterNumberName":"U-component_of_WINDS"},"data":[0,0,0,0,0,0,0,0,0,0,0,0,0,0,0,0,0,0,0,0,0,0,0,0,0,0,0,0,0,0,0,0,0,0,0,0,0,0,0,0,0,0,0,0,0,0,0,0,0,0,0,0,0,0,0,0,0,0,-0.3405,-0.3403,0,-0.3262,-0.3261,-0.3259,-0.32,-0.3201,-0.3201,-0.3201,-0.3056,-0.3052,-0.3048,0,0,0,0,0,0,0,0,0,0,0,0,0,-0.3627,-0.3623,-0.3405,-0.3403,-0.3401,-0.3262,-0.3261,-0.3259,-0.32,-0.3201,-0.3201,-0.3201,-0.3058,-0.3053,-0.3048,0,0,0,0,0,0,0,0,0,0,0,0,0,-0.3512,-0.3622,-0.3405,-0.3355,-0.3349,-0.3263,-0.326,-0.3258,-0.32,-0.3201,-0.3201,-0.3202,-0.3059,-0.3053,-0.3047,-0.3,0,0,-0.3028,-0.3026,0,0,0,0,0,0,0,0,-0.3519,-0.3504,-0.3364,-0.3359,-0.3352,-0.3249,-0.3286,-0.3172,-0.32,-0.3257,-0.3201,-0.3202,-0.312,-0.3109,-0.3081,-0.2993,-0.2987,-0.3028,-0.3024,-0.3021,-0.302,0,0,0,0,0,0,0,-0.3527,-0.351,-0.3348,-0.3362,-0.3355,-0.334,-0.3325,-0.3264,-0.3188,-0.3252,-0.3247,-0.3231,-0.3117,-0.3088,-0.3078,-0.2985,-0.3028,-0.3022,-0.3019,-0.3016,-0.2849,-0.2848,0,0,0,0,0,0,-0.3543,-0.3517,-0.3353,-0.3344,-0.3438,-0.3336,-0.3318,-0.3282,-0.3188,-0.3174,-0.3231,-0.3229,-0.3098,-0.3085,-0.3072,-0.301,-0.3021,-0.3015,-0.3012,-0.285,-0.2849,-0.2848,0,0,0,0,0,0,-0.3548,-0.3529,-0.3359,-0.3429,-0.3406,-0.3332,-0.3291,-0.3279,-0.3249,-0.3172,-0.3159,-0.3215,-0.3098,-0.3081,-0.3018,-0.3004,-0.3013,-0.3007,-0.2851,-0.285,-0.2849,-0.2885,0,0,0,0,0,0,-0.3554,-0.3531,-0.3512,-0.3429,-0.3403,-0.3307,-0.329,-0.3276,-0.3239,-0.3235,-0.3154,-0.3141,-0.3097,-0.3028,-0.3012,-0.2996,-0.3002,-0.2852,-0.285,-0.2849,-0.2885,-0.2885,-0.2886,0,0,0,0,0,-0.3563,-0.3528,-0.3511,-0.3492,-0.3378,-0.3306,-0.3291,-0.3241,-0.3238,-0.3218,-0.3169,-0.3143,-0.3008,-0.3022,-0.3003,-0.2985,-0.2852,-0.2851,-0.2849,-0.2885,-0.2885,-0.2886,0,0,0,0,0,0,-0.3612,-0.3517,-0.3497,-0.3435,-0.3379,-0.3296,-0.327,-0.3243,-0.3188,-0.3186,-0.3127,-0.3109,-0.3051,-0.3012,-0.3028,-0.2934,-0.2928,-0.2923,-0.2961,-0.2962,-0.2962,-0.2973,-0.2997,0,0,0,0,0,-0.3616,-0.3565,-0.3485,-0.3438,-0.3411,-0.3345,-0.3312,-0.3278,-0.3218,-0.3195,-0.314,-0.3083,-0.3028,-0.2993,-0.2937,-0.2879,-0.286,-0.2857,-0.2858,-0.2859,-0.2855,-0.282,-0.2818,-0.2843,-0.2843,-0.2843,0,0,-0.3623,-0.3565,-0.3536,-0.3446,-0.3399,-0.3348,-0.3326,-0.3273,-0.3235,-0.3187,-0.3123,-0.3082,-0.3014,-0.2953,-0.2923,-0.2919,-0.2844,-0.2857,-0.2858,-0.2853,-0.2818,-0.2816,-0.2814,-0.2842,-0.2842,-0.2842,0,0,-0.361,-0.3561,-0.3516,-0.3469,-0.3397,-0.3354,-0.3343,-0.3264,-0.3234,-0.317,-0.3133,-0.3086,-0.2992,-0.2945,-0.2909,-0.2878,-0.2852,-0.2861,-0.2864,-0.2831,-0.2829,-0.2827,-0.2815,-0.2812,-0.2858,-0.2858,-0.2858,0,-0.3628,-0.3549,-0.3496,-0.3445,-0.3406,-0.336,-0.3314,-0.3271,-0.3185,-0.316,-0.3156,-0.3036,-0.2987,-0.2914,-0.2906,-0.2879,-0.2864,-0.287,-0.2834,-0.2831,-0.2828,-0.2816,-0.2812,-0.2859,-0.2859,-0.2859,-0.2859,0,-0.3575,-0.3521,-0.3493,-0.3411,-0.3369,-0.3321,-0.326,-0.3225,-0.3194,-0.3152,-0.3086,-0.3026,-0.2957,-0.2938,-0.2908,-0.286,-0.2859,-0.2845,-0.2838,-0.2828,-0.2816,-0.2811,-0.2862,-0.2861,-0.2861,-0.286,0,0,-0.3589,-0.3477,-0.3468,-0.343,-0.3347,-0.3304,-0.3254,-0.3186,-0.3156,-0.3099,-0.3055,-0.2976,-0.2962,-0.2921,-0.2886,-0.2857,-0.2835,-0.2846,-0.2844,-0.2846,-0.2777,-0.2788,-0.2784,-0.2818,-0.2817,-0.2816,-0.2783,0,-0.3564,-0.3471,-0.3422,-0.335,-0.3299,-0.3254,-0.321,-0.3155,-0.3113,-0.3064,-0.3018,-0.2963,-0.295,-0.2924,-0.2894,-0.2844,-0.282,-0.2846,-0.2776,-0.2774,-0.2794,-0.2777,-0.2788,-0.276,-0.2778,-0.2777,-0.2776,0,-0.3523,-0.3465,-0.3388,-0.331,-0.3287,-0.3248,-0.3182,-0.3136,-0.3072,-0.3044,-0.2998,-0.2963,-0.2908,-0.2905,-0.2829,-0.2847,-0.2815,-0.2787,-0.2784,-0.2775,-0.2774,-0.2767,-0.275,-0.2746,-0.2768,-0.2769,-0.277,0,-0.354,-0.3443,-0.3384,-0.3353,-0.3261,-0.3235,-0.3195,-0.3132,-0.3094,-0.3036,-0.3011,-0.2948,-0.2914,-0.2865,-0.2814,-0.2817,-0.2742,-0.2736,-0.2717,-0.2718,-0.2703,-0.2704,-0.268,-0.2684,-0.2684,-0.2684,-0.2684,0,-0.3517,-0.3472,-0.339,-0.3354,-0.3302,-0.3245,-0.3195,-0.3152,-0.3096,-0.305,-0.3008,-0.2967,-0.2902,-0.2852,-0.2812,-0.2754,-0.2738,-0.2714,-0.2704,-0.2717,-0.272,-0.2695,-0.2696,-0.2683,-0.2683,-0.2683,-0.2683,0,-0.3528,-0.3472,-0.3404,-0.3322,-0.3301,-0.3266,-0.3196,-0.3159,-0.3115,-0.3058,-0.3041,-0.2973,-0.2912,-0.2856,-0.2775,-0.2748,-0.2689,-0.2677,-0.2711,-0.2705,-0.2689,-0.2691,-0.2647,-0.2638,-0.2649,-0.2649,-0.2649,0,-0.3517,-0.348,-0.3394,-0.3361,-0.3322,-0.3268,-0.3229,-0.3172,-0.3133,-0.3057,-0.303,-0.2965,-0.2911,-0.2816,-0.2759,-0.2697,-0.2682,-0.2671,-0.2672,-0.2687,-0.2681,-0.2683,-0.2679,-0.2671,-0.2672,-0.2672,-0.2672,0,-0.3503,-0.3476,-0.3422,-0.3357,-0.3311,-0.3257,-0.3202,-0.3177,-0.311,-0.3068,-0.3005,-0.2963,-0.288,-0.2817,-0.2748,-0.2708,-0.2678,-0.2672,-0.2664,-0.2677,-0.2698,-0.2686,-0.2712,-0.2673,-0.2673,-0.2673,-0.2673,-0.2673,-0.3501,-0.3467,-0.34,-0.334,-0.3293,-0.3242,-0.3203,-0.3154,-0.31,-0.3028,-0.2998,-0.2934,-0.287,-0.2775,-0.2734,-0.2683,-0.2677,-0.2666,-0.2663,-0.2661,-0.2663,-0.2707,-0.2671,-0.2671,-0.267,-0.267,-0.267,0,-0.3485,-0.344,-0.3385,-0.3309,-0.3262,-0.3238,-0.3175,-0.3137,-0.3081,-0.3024,-0.2971,-0.2899,-0.2837,-0.2775,-0.271,-0.2681,-0.2666,-0.2666,-0.2667,-0.2658,-0.2673,-0.2686,-0.2679,-0.2679,-0.2679,-0.2679,-0.2679,-0.2679,-0.347,-0.341,-0.3376,-0.3291,-0.3246,-0.3183,-0.3149,-0.3102,-0.3056,-0.2977,-0.2925,-0.2885,-0.2825,-0.2755,-0.2697,-0.2681,-0.2659,-0.2662,-0.2642,-0.2657,-0.2657,-0.2657,-0.2668,-0.2658,-0.2658,-0.263,-0.263,-0.263]},{"header":{"parameterUnit":"m.s-1","parameterCategory":1,"la1":30.2991,"la2":30.254,"lo1":-89.0895,"lo2":-89.0444,"dy":0.0017,"dx":0.0017,"nx":28,"ny":28,"refTime":"2025-04-13T21:00:00:Z","depth":0,"parameterNumber":3,"parameterNumberName":"V-component_of_WINDS"},"data":[0,0,0,0,0,0,0,0,0,0,0,0,0,0,0,0,0,0,0,0,0,0,0,0,0,0,0,0,0,0,0,0,0,0,0,0,0,0,0,0,0,0,0,0,0,0,0,0,0,0,0,0,0,0,0,0,0,0,4.2241,4.224,0,4.2188,4.2187,4.2187,4.2094,4.2092,4.2091,4.2089,4.2036,4.2037,4.2037,0,0,0,0,0,0,0,0,0,0,0,0,0,4.2262,4.2262,4.2241,4.224,4.2239,4.2188,4.2187,4.2187,4.2094,4.2092,4.209,4.2088,4.2036,4.2037,4.2037,0,0,0,0,0,0,0,0,0,0,0,0,0,4.2235,4.2262,4.2241,4.2187,4.2182,4.2188,4.2187,4.2187,4.2095,4.2092,4.209,4.2087,4.2036,4.2037,4.2037,4.2092,0,0,4.2038,4.2038,0,0,0,0,0,0,0,0,4.2237,4.2235,4.2196,4.2191,4.2185,4.2145,4.2175,4.2155,4.2096,4.2128,4.2089,4.2086,4.2075,4.2072,4.2068,4.209,4.2087,4.2038,4.2038,4.2039,4.2039,0,0,0,0,0,0,0,4.2239,4.2236,4.222,4.2195,4.2189,4.2166,4.2159,4.2171,4.2117,4.2125,4.2118,4.2113,4.2071,4.2068,4.2066,4.2087,4.2038,4.2038,4.2039,4.2039,4.2149,4.2152,0,0,0,0,0,0,4.2248,4.2239,4.2222,4.2218,4.2205,4.2168,4.216,4.216,4.2116,4.2107,4.2115,4.2109,4.2068,4.2066,4.2064,4.2124,4.2039,4.2039,4.2039,4.2147,4.215,4.2153,0,0,0,0,0,0,4.2249,4.2248,4.2224,4.2226,4.2222,4.217,4.2171,4.2161,4.2157,4.2109,4.2099,4.2122,4.2066,4.2063,4.2085,4.2121,4.2039,4.2039,4.2143,4.2148,4.2151,4.2246,0,0,0,0,0,0,4.225,4.2249,4.2269,4.2228,4.2222,4.2246,4.2173,4.2162,4.2158,4.2149,4.2112,4.2104,4.2064,4.2085,4.2086,4.212,4.204,4.214,4.2145,4.215,4.224,4.2253,4.2264,0,0,0,0,0,4.2251,4.2299,4.2271,4.2269,4.2246,4.2249,4.2245,4.2198,4.2161,4.2181,4.215,4.2105,4.2117,4.2088,4.2088,4.2123,4.2137,4.2144,4.215,4.2234,4.225,4.2264,0,0,0,0,0,0,4.2346,4.2292,4.2261,4.2296,4.2277,4.2233,4.2257,4.2217,4.2209,4.2201,4.2143,4.2136,4.2165,4.2146,4.2115,4.2173,4.212,4.2127,4.2184,4.2199,4.2212,4.2215,4.204,0,0,0,0,0,4.2371,4.2377,4.233,4.2365,4.2358,4.2309,4.2308,4.2273,4.2252,4.2244,4.2215,4.2196,4.2196,4.2197,4.2194,4.2236,4.2227,4.226,4.2273,4.2283,4.2289,4.2309,4.2323,4.2173,4.2173,4.2173,0,0,4.2423,4.2394,4.2402,4.2384,4.2365,4.2373,4.2303,4.2315,4.2319,4.2246,4.2264,4.2243,4.2218,4.225,4.2263,4.2235,4.2328,4.2291,4.23,4.23,4.2317,4.2331,4.2344,4.2177,4.2176,4.2176,0,0,4.2521,4.25,4.2527,4.2509,4.2482,4.2449,4.2456,4.2417,4.24,4.2417,4.2362,4.2367,4.2368,4.2352,4.2344,4.2435,4.2393,4.2436,4.25,4.252,4.2532,4.2542,4.2574,4.2586,4.2442,4.2442,4.2442,0,4.2589,4.2597,4.2546,4.256,4.2553,4.2486,4.2513,4.2499,4.2473,4.2469,4.2439,4.2437,4.2416,4.2443,4.2465,4.2461,4.2466,4.2439,4.2535,4.2544,4.2553,4.2582,4.2594,4.2447,4.2447,4.2446,4.2446,0,4.2682,4.2689,4.2714,4.2689,4.2685,4.2706,4.2657,4.2659,4.2624,4.2595,4.2613,4.2585,4.2575,4.2579,4.2545,4.2601,4.2584,4.2545,4.249,4.2574,4.26,4.2611,4.2455,4.2453,4.2451,4.245,0,0,4.2838,4.2784,4.2794,4.2781,4.2746,4.275,4.2767,4.2756,4.2759,4.2743,4.2756,4.2757,4.272,4.2711,4.2675,4.2693,4.2765,4.2651,4.265,4.2672,4.2823,4.2853,4.2867,4.2737,4.2739,4.2741,4.2825,0,4.2928,4.2954,4.2907,4.2944,4.2949,4.2885,4.29,4.288,4.2853,4.2853,4.2823,4.2824,4.2776,4.277,4.2785,4.2754,4.2795,4.2747,4.2748,4.2748,4.2755,4.288,4.2912,4.2993,4.2835,4.2837,4.2838,0,4.3036,4.3024,4.3062,4.3023,4.3023,4.3038,4.3023,4.3025,4.3,4.2979,4.2969,4.2926,4.294,4.2888,4.2905,4.2873,4.2871,4.2856,4.2858,4.2855,4.2798,4.2881,4.3017,4.303,4.2854,4.2853,4.2852,0,4.3145,4.3139,4.316,4.3152,4.3107,4.3118,4.3101,4.3073,4.3069,4.3057,4.3053,4.3043,4.3037,4.303,4.2986,4.2952,4.3008,4.2952,4.299,4.2991,4.3005,4.3004,4.3142,4.3005,4.3005,4.3004,4.3004,0,4.325,4.3275,4.3208,4.3222,4.3247,4.3193,4.3221,4.3196,4.3173,4.3179,4.3124,4.3131,4.3072,4.3073,4.3039,4.3058,4.3056,4.3039,4.3029,4.3043,4.3045,4.304,4.3033,4.3008,4.3007,4.3006,4.3006,0,4.3377,4.3333,4.3351,4.3308,4.3297,4.3318,4.328,4.329,4.3259,4.3268,4.3267,4.3219,4.3217,4.3171,4.316,4.3137,4.317,4.315,4.3178,4.3171,4.3211,4.3208,4.335,4.3366,4.322,4.3221,4.3222,0,4.3446,4.3464,4.3421,4.3422,4.3406,4.3408,4.3403,4.335,4.3348,4.3321,4.3334,4.3327,4.3319,4.3319,4.3283,4.3273,4.3252,4.3303,4.3251,4.3264,4.3252,4.3251,4.3252,4.3314,4.3316,4.3317,4.3319,0,4.3574,4.3551,4.3546,4.3534,4.353,4.3517,4.3502,4.3505,4.3447,4.3447,4.3444,4.3438,4.3426,4.342,4.3404,4.3385,4.3342,4.3335,4.3343,4.3358,4.3373,4.3364,4.3207,4.3332,4.3331,4.333,4.3329,4.3329,4.3673,4.3685,4.3657,4.3653,4.3636,4.3622,4.3629,4.3598,4.3595,4.358,4.3549,4.3551,4.3525,4.3499,4.3484,4.3484,4.3458,4.347,4.3473,4.3477,4.3484,4.3373,4.3481,4.348,4.348,4.3479,4.3479,0,4.3797,4.3775,4.3773,4.3752,4.3749,4.3708,4.3688,4.3689,4.3691,4.367,4.3663,4.3659,4.3652,4.3615,4.3604,4.3611,4.3591,4.361,4.3609,4.3605,4.3508,4.3502,4.3626,4.3626,4.3626,4.3626,4.3626,4.3626,4.3861,4.3879,4.3853,4.3862,4.384,4.3841,4.3833,4.3819,4.3802,4.38,4.3794,4.377,4.3742,4.3728,4.372,4.3709,4.3707,4.3733,4.3715,4.3626,4.3612,4.3598,4.3592,4.3733,4.3733,4.3811,4.3812,4.3813]}]]